Time,TemperatureF,DewpointF,PressureIn,WindDirection,WindDirectionDegrees,WindSpeedMPH,WindSpeedGustMPH,Humidity,HourlyPrecipIn,Conditions,Clouds,dailyrainin,SoftwareType,DateUTC
2013-03-01 00:02:00,32.0,30.0,30.04,WNW,291,3.0,6.0,93,0.00,,,0.03,,2013-03-01 06:02:00,
2013-03-01 00:11:00,32.0,30.0,30.03,WNW,294,4.0,8.0,93,0.00,,,0.03,,2013-03-01 06:11:00,
2013-03-01 00:22:00,32.0,30.0,30.03,WNW,294,4.0,8.0,93,0.00,,,0.03,,2013-03-01 06:22:00,
2013-03-01 00:32:00,32.0,30.0,30.03,WNW,294,4.0,8.0,93,0.00,,,0.03,,2013-03-01 06:32:00,
2013-03-01 00:42:00,32.0,30.0,30.03,WNW,294,4.0,8.0,93,0.00,,,0.03,,2013-03-01 06:42:00,
2013-03-01 00:52:00,32.0,30.0,30.03,NW,320,3.0,8.0,93,0.00,,,0.03,,2013-03-01 06:52:00,
2013-03-01 01:01:00,32.0,30.0,30.03,NW,320,3.0,8.0,93,0.00,,,0.03,,2013-03-01 07:01:00,
2013-03-01 01:11:00,32.0,30.0,30.03,NW,320,3.0,8.0,93,0.00,,,0.03,,2013-03-01 07:11:00,
2013-03-01 01:22:00,32.0,30.0,30.03,NW,312,3.0,5.0,93,0.00,,,0.03,,2013-03-01 07:22:00,
2013-03-01 01:32:00,32.0,30.0,30.03,NW,312,3.0,5.0,93,0.00,,,0.03,,2013-03-01 07:32:00,
2013-03-01 01:42:00,32.0,30.0,30.03,NW,312,3.0,5.0,93,0.00,,,0.03,,2013-03-01 07:42:00,
2013-03-01 01:52:00,32.0,30.0,30.03,NW,312,3.0,5.0,93,0.00,,,0.03,,2013-03-01 07:52:00,
2013-03-01 02:01:00,32.0,30.0,30.03,NW,312,3.0,5.0,93,0.00,,,0.03,,2013-03-01 08:01:00,
2013-03-01 02:12:00,32.0,30.0,30.03,NW,312,3.0,5.0,93,0.00,,,0.03,,2013-03-01 08:12:00,
2013-03-01 02:22:00,32.0,30.0,30.02,NW,324,5.0,8.0,92,0.00,,,0.03,,2013-03-01 08:22:00,
2013-03-01 02:32:00,32.0,30.0,30.02,NW,324,5.0,8.0,92,0.00,,,0.03,,2013-03-01 08:32:00,
2013-03-01 02:43:00,32.0,30.0,30.02,NW,324,5.0,8.0,92,0.00,,,0.03,,2013-03-01 08:43:00,
2013-03-01 02:53:00,31.0,29.0,30.02,NNW,327,4.0,8.0,91,0.00,,,0.03,,2013-03-01 08:53:00,
2013-03-01 03:02:00,31.0,29.0,30.02,NNW,327,4.0,8.0,91,0.00,,,0.03,,2013-03-01 09:02:00,
2013-03-01 03:12:00,31.0,29.0,30.02,NNW,327,4.0,8.0,91,0.00,,,0.03,,2013-03-01 09:12:00,
2013-03-01 03:22:00,31.0,29.0,30.02,North,355,4.0,8.0,91,0.00,,,0.03,,2013-03-01 09:22:00,
2013-03-01 03:32:00,31.0,29.0,30.02,North,355,4.0,8.0,91,0.00,,,0.03,,2013-03-01 09:32:00,
2013-03-01 03:42:00,31.0,29.0,30.02,North,355,4.0,8.0,91,0.00,,,0.03,,2013-03-01 09:42:00,
2013-03-01 03:52:00,31.0,29.0,30.02,NW,322,4.0,7.0,91,0.00,,,0.03,,2013-03-01 09:52:00,
2013-03-01 04:02:00,31.0,29.0,30.02,NW,322,4.0,7.0,91,0.00,,,0.03,,2013-03-01 10:02:00,
2013-03-01 04:11:00,31.0,29.0,30.02,NW,322,4.0,7.0,91,0.00,,,0.03,,2013-03-01 10:11:00,
2013-03-01 04:21:00,31.0,29.0,30.02,NNW,328,4.0,7.0,91,0.00,,,0.03,,2013-03-01 10:21:00,
2013-03-01 04:32:00,31.0,29.0,30.02,NNW,328,4.0,7.0,91,0.00,,,0.03,,2013-03-01 10:32:00,
2013-03-01 04:42:00,31.0,29.0,30.02,NNW,328,4.0,7.0,91,0.00,,,0.03,,2013-03-01 10:42:00,
2013-03-01 04:52:00,31.0,29.0,30.02,NNW,339,5.0,7.0,91,0.00,,,0.03,,2013-03-01 10:52:00,
2013-03-01 05:01:00,31.0,29.0,30.02,NNW,339,5.0,7.0,91,0.00,,,0.03,,2013-03-01 11:01:00,
2013-03-01 05:11:00,31.0,29.0,30.02,NNW,339,5.0,7.0,91,0.00,,,0.03,,2013-03-01 11:11:00,
2013-03-01 05:22:00,31.0,29.0,30.03,NNW,330,4.0,5.0,92,0.00,,,0.03,,2013-03-01 11:22:00,
2013-03-01 05:32:00,31.0,29.0,30.03,NNW,330,4.0,5.0,92,0.00,,,0.03,,2013-03-01 11:32:00,
2013-03-01 05:42:00,31.0,29.0,30.03,NNW,330,4.0,5.0,92,0.00,,,0.03,,2013-03-01 11:42:00,
2013-03-01 05:52:00,30.0,28.0,30.03,NNE,12,3.0,5.0,91,0.00,,,0.03,,2013-03-01 11:52:00,
2013-03-01 06:01:00,30.0,28.0,30.03,NNE,12,3.0,5.0,91,0.00,,,0.03,,2013-03-01 12:01:00,
2013-03-01 06:11:00,30.0,28.0,30.03,NNE,12,3.0,5.0,91,0.00,,,0.03,,2013-03-01 12:11:00,
2013-03-01 06:21:00,30.0,28.0,30.03,North,355,3.0,6.0,92,0.00,,,0.03,,2013-03-01 12:21:00,
2013-03-01 06:32:00,30.0,28.0,30.03,North,355,3.0,6.0,92,0.00,,,0.03,,2013-03-01 12:32:00,
2013-03-01 06:42:00,30.0,28.0,30.03,North,355,3.0,6.0,92,0.00,,,0.03,,2013-03-01 12:42:00,
2013-03-01 06:52:00,29.0,27.0,30.04,North,360,3.0,9.0,91,0.00,,,0.03,,2013-03-01 12:52:00,
2013-03-01 07:01:00,29.0,27.0,30.04,North,360,3.0,9.0,91,0.00,,,0.03,,2013-03-01 13:01:00,
2013-03-01 07:11:00,29.0,27.0,30.04,North,360,3.0,9.0,91,0.00,,,0.03,,2013-03-01 13:11:00,
2013-03-01 07:21:00,29.0,27.0,30.04,North,360,3.0,9.0,91,0.00,,,0.03,,2013-03-01 13:21:00,
2013-03-01 07:32:00,29.0,27.0,30.04,North,360,3.0,9.0,91,0.00,,,0.03,,2013-03-01 13:32:00,
2013-03-01 07:52:00,29.0,26.0,30.07,NNW,343,6.0,11.0,89,0.00,,,0.03,,2013-03-01 13:52:00,
2013-03-01 08:01:00,29.0,26.0,30.07,NNW,343,6.0,11.0,89,0.00,,,0.03,,2013-03-01 14:01:00,
2013-03-01 08:11:00,29.0,26.0,30.07,NNW,343,6.0,11.0,89,0.00,,,0.03,,2013-03-01 14:11:00,
2013-03-01 08:21:00,29.0,26.0,30.07,North,350,5.0,8.0,89,0.00,,,0.03,,2013-03-01 14:21:00,
2013-03-01 08:32:00,29.0,26.0,30.07,North,350,5.0,8.0,89,0.00,,,0.03,,2013-03-01 14:32:00,
2013-03-01 08:42:00,29.0,26.0,30.07,North,350,5.0,8.0,89,0.00,,,0.03,,2013-03-01 14:42:00,
2013-03-01 08:52:00,29.0,26.0,30.08,NNW,338,5.0,11.0,88,0.00,,,0.03,,2013-03-01 14:52:00,
2013-03-01 09:01:00,29.0,26.0,30.08,NNW,338,5.0,11.0,88,0.00,,,0.03,,2013-03-01 15:01:00,
2013-03-01 09:11:00,30.0,27.0,30.08,NNW,335,6.0,10.0,87,0.00,,,0.03,,2013-03-01 15:11:00,
2013-03-01 09:21:00,30.0,27.0,30.08,NNW,335,6.0,10.0,87,0.00,,,0.03,,2013-03-01 15:21:00,
2013-03-01 09:31:00,30.0,27.0,30.08,NNW,335,6.0,10.0,87,0.00,,,0.03,,2013-03-01 15:31:00,
2013-03-01 09:42:00,30.0,27.0,30.08,NNW,335,6.0,10.0,87,0.00,,,0.03,,2013-03-01 15:42:00,
2013-03-01 09:52:00,30.0,27.0,30.08,NNW,328,7.0,11.0,87,0.00,,,0.03,,2013-03-01 15:52:00,
2013-03-01 10:01:00,30.0,27.0,30.08,NNW,328,7.0,11.0,87,0.00,,,0.03,,2013-03-01 16:01:00,
2013-03-01 10:11:00,30.0,27.0,30.08,NNW,328,7.0,11.0,87,0.00,,,0.03,,2013-03-01 16:11:00,
2013-03-01 10:21:00,31.0,27.0,30.08,NNW,335,6.0,9.0,86,0.02,,,0.05,,2013-03-01 16:21:00,
2013-03-01 10:32:00,31.0,27.0,30.08,NNW,335,6.0,9.0,86,0.02,,,0.05,,2013-03-01 16:32:00,
2013-03-01 10:42:00,31.0,27.0,30.08,NNW,335,6.0,9.0,86,0.02,,,0.05,,2013-03-01 16:42:00,
2013-03-01 10:52:00,31.0,28.0,30.09,NW,319,5.0,11.0,87,0.04,,,0.07,,2013-03-01 16:52:00,
2013-03-01 11:01:00,31.0,28.0,30.09,NW,319,5.0,11.0,87,0.04,,,0.07,,2013-03-01 17:01:00,
2013-03-01 11:11:00,31.0,27.0,30.09,NW,319,6.0,9.0,86,0.03,,,0.08,,2013-03-01 17:11:00,
2013-03-01 11:21:00,31.0,27.0,30.09,NW,319,6.0,9.0,86,0.03,,,0.08,,2013-03-01 17:21:00,
2013-03-01 11:31:00,31.0,27.0,30.09,NW,319,6.0,9.0,86,0.03,,,0.08,,2013-03-01 17:31:00,
2013-03-01 11:42:00,32.0,28.0,30.09,North,360,7.0,10.0,85,0.01,,,0.08,,2013-03-01 17:42:00,
2013-03-01 11:52:00,32.0,28.0,30.09,North,360,7.0,10.0,85,0.01,,,0.08,,2013-03-01 17:52:00,
2013-03-01 12:01:00,32.0,28.0,30.09,North,360,7.0,10.0,85,0.01,,,0.08,,2013-03-01 18:01:00,
2013-03-01 12:12:00,32.0,28.0,30.09,North,360,7.0,10.0,85,0.01,,,0.08,,2013-03-01 18:12:00,
2013-03-01 12:22:00,32.0,28.0,30.08,NNW,337,5.0,12.0,84,0.00,,,0.08,,2013-03-01 18:22:00,
2013-03-01 12:31:00,32.0,28.0,30.08,NNW,337,5.0,12.0,84,0.00,,,0.08,,2013-03-01 18:31:00,
2013-03-01 12:42:00,32.0,27.0,30.07,NNW,330,7.0,12.0,83,0.00,,,0.08,,2013-03-01 18:42:00,
2013-03-01 12:52:00,32.0,27.0,30.07,NNW,330,7.0,12.0,83,0.00,,,0.08,,2013-03-01 18:52:00,
2013-03-01 13:01:00,32.0,27.0,30.07,NNW,330,7.0,12.0,83,0.00,,,0.08,,2013-03-01 19:01:00,
2013-03-01 13:11:00,32.0,27.0,30.07,NNW,330,7.0,12.0,83,0.00,,,0.08,,2013-03-01 19:11:00,
2013-03-01 13:21:00,32.0,28.0,30.07,NW,316,8.0,12.0,85,0.00,,,0.08,,2013-03-01 19:21:00,
2013-03-01 13:31:00,32.0,28.0,30.07,NW,316,8.0,12.0,85,0.00,,,0.08,,2013-03-01 19:31:00,
2013-03-01 13:42:00,32.0,28.0,30.07,NW,316,8.0,12.0,85,0.00,,,0.08,,2013-03-01 19:42:00,
2013-03-01 13:52:00,32.0,28.0,30.07,NNW,328,6.0,9.0,86,0.00,,,0.08,,2013-03-01 19:52:00,
2013-03-01 14:01:00,32.0,28.0,30.07,NNW,328,6.0,9.0,86,0.00,,,0.08,,2013-03-01 20:01:00,
2013-03-01 14:11:00,32.0,28.0,30.07,NNW,328,6.0,9.0,86,0.00,,,0.08,,2013-03-01 20:11:00,
2013-03-01 14:21:00,32.0,28.0,30.06,NW,322,9.0,16.0,85,0.00,,,0.08,,2013-03-01 20:21:00,
2013-03-01 14:31:00,32.0,28.0,30.06,NW,322,9.0,16.0,85,0.00,,,0.08,,2013-03-01 20:31:00,
2013-03-01 14:42:00,32.0,28.0,30.06,NW,322,9.0,16.0,85,0.00,,,0.08,,2013-03-01 20:42:00,
2013-03-01 14:52:00,32.0,28.0,30.06,North,350,9.0,15.0,86,0.00,,,0.08,,2013-03-01 20:52:00,
2013-03-01 15:01:00,32.0,28.0,30.06,North,350,9.0,15.0,86,0.00,,,0.08,,2013-03-01 21:01:00,
2013-03-01 15:11:00,31.0,27.0,30.07,NNW,334,8.0,14.0,85,0.00,,,0.08,,2013-03-01 21:11:00,
2013-03-01 15:21:00,31.0,27.0,30.07,NNW,334,8.0,14.0,85,0.00,,,0.08,,2013-03-01 21:21:00,
2013-03-01 15:31:00,31.0,27.0,30.07,NNW,334,8.0,14.0,85,0.00,,,0.08,,2013-03-01 21:31:00,
2013-03-01 15:42:00,31.0,27.0,30.07,NNW,339,7.0,15.0,85,0.00,,,0.08,,2013-03-01 21:42:00,
2013-03-01 15:52:00,31.0,27.0,30.07,NNW,339,7.0,15.0,85,0.00,,,0.08,,2013-03-01 21:52:00,
2013-03-01 16:01:00,31.0,27.0,30.07,NNW,339,7.0,15.0,85,0.00,,,0.08,,2013-03-01 22:01:00,
2013-03-01 16:11:00,31.0,28.0,30.08,NNW,339,9.0,14.0,87,0.00,,,0.05,,2013-03-01 22:11:00,
2013-03-01 16:21:00,31.0,28.0,30.08,NNW,339,9.0,14.0,87,0.00,,,0.05,,2013-03-01 22:21:00,
2013-03-01 16:31:00,31.0,28.0,30.08,NNW,339,9.0,14.0,87,0.00,,,0.05,,2013-03-01 22:31:00,
2013-03-01 16:42:00,31.0,28.0,30.08,NNW,339,9.0,14.0,87,0.00,,,0.05,,2013-03-01 22:42:00,
2013-03-01 16:52:00,30.0,27.0,30.09,NNW,339,7.0,11.0,88,0.00,,,0.05,,2013-03-01 22:52:00,
2013-03-01 17:01:00,30.0,27.0,30.09,NNW,339,7.0,11.0,88,0.00,,,0.05,,2013-03-01 23:01:00,
2013-03-01 17:11:00,30.0,27.0,30.09,NNW,339,7.0,11.0,88,0.00,,,0.05,,2013-03-01 23:11:00,
2013-03-01 17:21:00,30.0,27.0,30.09,NNW,336,8.0,14.0,89,0.00,,,0.05,,2013-03-01 23:21:00,
2013-03-01 17:31:00,30.0,27.0,30.09,NNW,336,8.0,14.0,89,0.00,,,0.05,,2013-03-01 23:31:00,
2013-03-01 17:42:00,30.0,27.0,30.09,NNW,336,8.0,14.0,89,0.00,,,0.05,,2013-03-01 23:42:00,
2013-03-01 17:52:00,30.0,27.0,30.10,North,350,8.0,16.0,87,0.00,,,0.05,,2013-03-01 23:52:00,
2013-03-01 18:01:00,30.0,27.0,30.10,North,350,8.0,16.0,87,0.00,,,0.05,,2013-03-02 00:01:00,
2013-03-01 18:11:00,30.0,27.0,30.10,North,350,8.0,16.0,87,0.00,,,0.05,,2013-03-02 00:11:00,
2013-03-01 18:21:00,30.0,27.0,30.11,NNW,329,9.0,14.0,88,0.00,,,0.05,,2013-03-02 00:21:00,
2013-03-01 18:31:00,30.0,27.0,30.11,NNW,329,9.0,14.0,88,0.00,,,0.05,,2013-03-02 00:31:00,
2013-03-01 18:42:00,30.0,27.0,30.12,NNW,330,6.0,12.0,89,0.00,,,0.05,,2013-03-02 00:42:00,
2013-03-01 18:52:00,30.0,27.0,30.12,NNW,330,6.0,12.0,89,0.00,,,0.05,,2013-03-02 00:52:00,
2013-03-01 19:01:00,30.0,27.0,30.12,NNW,330,6.0,12.0,89,0.00,,,0.05,,2013-03-02 01:01:00,
2013-03-01 19:11:00,30.0,27.0,30.12,NNW,330,6.0,12.0,89,0.00,,,0.05,,2013-03-02 01:11:00,
2013-03-01 19:21:00,30.0,27.0,30.12,NNW,330,6.0,12.0,89,0.00,,,0.05,,2013-03-02 01:21:00,
2013-03-01 19:31:00,30.0,27.0,30.12,NNW,330,6.0,12.0,89,0.00,,,0.05,,2013-03-02 01:31:00,
2013-03-01 20:22:00,29.0,26.0,30.13,NW,312,8.0,13.0,89,0.00,,,0.05,,2013-03-02 02:22:00,
2013-03-01 20:32:00,29.0,26.0,30.13,NW,312,8.0,13.0,89,0.00,,,0.05,,2013-03-02 02:32:00,
2013-03-01 20:42:00,29.0,26.0,30.13,NW,312,8.0,13.0,89,0.00,,,0.05,,2013-03-02 02:42:00,
2013-03-01 20:52:00,29.0,26.0,30.13,NNW,338,8.0,13.0,89,0.00,,,0.05,,2013-03-02 02:52:00,
2013-03-01 21:01:00,29.0,26.0,30.13,NNW,338,8.0,13.0,89,0.00,,,0.05,,2013-03-02 03:01:00,
2013-03-01 21:11:00,29.0,26.0,30.13,NNW,338,8.0,13.0,89,0.00,,,0.05,,2013-03-02 03:11:00,
2013-03-01 21:21:00,29.0,26.0,30.13,NNW,330,9.0,14.0,88,0.00,,,0.05,,2013-03-02 03:21:00,
2013-03-01 21:32:00,29.0,26.0,30.13,NNW,330,9.0,14.0,88,0.00,,,0.05,,2013-03-02 03:32:00,
2013-03-01 21:42:00,29.0,26.0,30.13,NNW,330,9.0,14.0,88,0.00,,,0.05,,2013-03-02 03:42:00,
2013-03-01 21:52:00,29.0,26.0,30.14,NNW,331,9.0,13.0,88,0.00,,,0.05,,2013-03-02 03:52:00,
2013-03-01 22:01:00,29.0,26.0,30.14,NNW,331,9.0,13.0,88,0.00,,,0.05,,2013-03-02 04:01:00,
2013-03-01 22:11:00,29.0,26.0,30.14,NNW,336,7.0,13.0,88,0.00,,,0.05,,2013-03-02 04:11:00,
2013-03-01 22:21:00,29.0,26.0,30.14,NNW,336,7.0,13.0,88,0.00,,,0.05,,2013-03-02 04:21:00,
2013-03-01 22:32:00,29.0,26.0,30.14,NNW,336,7.0,13.0,88,0.00,,,0.05,,2013-03-02 04:32:00,
2013-03-01 22:42:00,29.0,26.0,30.14,NNW,336,7.0,13.0,88,0.00,,,0.05,,2013-03-02 04:42:00,
2013-03-01 22:52:00,28.0,25.0,30.14,North,360,7.0,14.0,87,0.00,,,0.05,,2013-03-02 04:52:00,
2013-03-01 23:01:00,28.0,25.0,30.14,North,360,7.0,14.0,87,0.00,,,0.05,,2013-03-02 05:01:00,
2013-03-01 23:12:00,28.0,25.0,30.14,North,360,7.0,14.0,87,0.00,,,0.05,,2013-03-02 05:12:00,
2013-03-01 23:22:00,28.0,25.0,30.14,North,350,7.0,14.0,87,0.00,,,0.05,,2013-03-02 05:22:00,
2013-03-01 23:32:00,28.0,25.0,30.14,North,350,7.0,14.0,87,0.00,,,0.05,,2013-03-02 05:32:00,
2013-03-01 23:42:00,28.0,25.0,30.14,North,350,7.0,14.0,87,0.00,,,0.05,,2013-03-02 05:42:00,
2013-03-01 23:52:00,28.0,24.0,30.14,North,350,10.0,14.0,86,0.00,,,0.05,,2013-03-02 05:52:00,